This demonstration page uses our WeatherBlox Daily Observations layout. Learn more.

Left ArrowRight Arrow

39.51506, -84.39828

Hourly Observations for December 30, 2018

Temp ( °F °C ) Dew Point ( °F °C ) Humidity (%) Winds ( mph kmh ) Pressure ( in mb ) Visibility ( mi km ) Precip ( " mm )
12:15 am 00:15 Cloudy 35 1.7 28 -2.4 75 75 SW 9 15 30.24 1024 10 16 N/A
12:35 am 00:35 Cloudy 35 1.6 28 -2.4 75 75 SSW 9 15 30.24 1024 10 16 N/A
12:55 am 00:55 Cloudy 35 1.6 28 -2.1 77 77 SW 7 11 30.24 1024 10 16 N/A
1:15 am 01:15 Cloudy 35 1.7 28 -2.4 75 75 SW 9 15 30.24 1024 10 16 N/A
1:35 am 01:35 Cloudy 35 1.6 28 -2.4 75 75 SW 9 15 30.27 1025 10 16 N/A
1:55 am 01:55 Partly Cloudy 35 1.5 28 -2.5 75 75 WSW 9 15 30.24 1024 10 16 N/A
2:15 am 02:15 Partly Cloudy 35 1.4 28 -2.4 76 76 WSW 8 13 30.24 1024 10 16 N/A
2:35 am 02:35 Partly Cloudy 34 1.2 28 -2.4 77 77 SW 6 9 30.27 1025 10 16 N/A
2:55 am 02:55 Cloudy 34 0.9 28 -2.5 78 78 SW 7 11 30.27 1025 10 16 N/A
3:15 am 03:15 Cloudy 33 0.7 27 -2.6 79 79 WSW 7 11 30.27 1025 10 16 N/A
3:35 am 03:35 Cloudy 33 0.6 27 -2.6 79 79 WSW 6 9 30.27 1025 10 16 N/A
3:55 am 03:55 Cloudy 33 0.6 27 -2.7 79 79 SW 6 9 30.24 1024 10 16 N/A
4:15 am 04:15 Mostly Cloudy 32 0.2 27 -2.9 80 80 WSW 6 9 30.24 1024 10 16 N/A
4:35 am 04:35 Mostly Cloudy 31 -0.7 27 -3 85 85 WSW 3 6 30.24 1024 10 16 N/A
4:55 am 04:55 Clear 30 -1 26 -3.3 85 85 SW 5 7 30.24 1024 10 16 N/A
5:15 am 05:15 Clear 29 -1.8 26 -3.4 89 89 SW 3 6 30.24 1024 10 16 N/A
5:35 am 05:35 Clear 28 -2.3 25 -3.8 90 90 SSW 3 6 30.24 1024 10 16 N/A
5:55 am 05:55 Clear 28 -2.5 25 -4.1 89 89 N N/A 30.24 1024 10 16 N/A
6:15 am 06:15 Clear 30 -1.3 27 -2.9 89 89 N N/A 30.24 1024 10 16 N/A
6:35 am 06:35 Clear 29 -1.8 27 -2.8 93 93 N N/A 30.24 1024 10 16 N/A
6:55 am 06:55 Clear 27 -2.8 26 -3.4 96 96 N N/A 30.24 1024 10 16 N/A
7:15 am 07:15 Partly Cloudy 26 -3.3 25 -3.9 96 96 N N/A 30.24 1024 7 11 N/A
7:35 am 07:35 Cloudy 27 -2.8 26 -3.4 96 96 N N/A 30.27 1025 7 11 N/A
7:55 am 07:55 Cloudy 27 -2.9 26 -3.6 95 95 N N/A 30.27 1025 7 11 N/A
8:15 am 08:15 Cloudy 28 -2.4 26 -3.1 95 95 N N/A 30.27 1025 7 11 N/A
8:35 am 08:35 Cloudy 27 -2.6 26 -3.4 94 94 N N/A 30.27 1025 7 11 N/A
8:55 am 08:55 Cloudy 28 -2.2 27 -2.9 95 95 N N/A 30.27 1025 7 11 N/A
9:15 am 09:15 Cloudy 30 -1.3 28 -2.3 93 93 N N/A 30.27 1025 7 11 N/A
9:35 am 09:35 Mostly Cloudy 30 -1 28 -2.2 92 92 N N/A 30.27 1025 7 11 N/A
9:55 am 09:55 Mostly Cloudy 31 -0.3 27 -2.6 85 85 SW 5 7 30.27 1025 10 16 N/A
10:15 am 10:15 Cloudy 32 -0.1 28 -2.5 84 84 SW 6 9 30.27 1025 10 16 N/A
10:35 am 10:35 Cloudy 32 0.1 27 -2.7 82 82 SSW 7 11 30.27 1025 10 16 N/A
10:55 am 10:55 Mostly Cloudy 33 0.7 27 -2.6 79 79 SW 8 13 30.27 1025 10 16 N/A
11:15 am 11:15 Sunny 33 0.8 27 -2.7 78 78 SSW 7 11 30.24 1024 10 16 N/A
11:35 am 11:35 Partly Cloudy 34 1.2 28 -2.5 77 77 SW 8 13 30.24 1024 10 16 N/A
11:55 am 11:55 Sunny 35 1.6 28 -2.5 74 74 SW 8 13 30.24 1024 10 16 N/A
12:15 pm 12:15 Sunny 35 1.9 27 -2.6 72 72 S 7 11 30.21 1023 10 16 N/A
12:35 pm 12:35 Sunny 37 2.8 28 -2.2 70 70 SW 9 15 30.21 1023 10 16 N/A
12:55 pm 12:55 Sunny 37 2.6 28 -2.3 70 70 SW 7 11 30.21 1023 10 16 N/A
1:15 pm 13:15 Sunny 38 3.2 28 -2.2 68 68 SW 6 9 30.21 1023 10 16 N/A
1:35 pm 13:35 Sunny 37 3 28 -2.5 67 67 S 7 11 30.18 1022 10 16 N/A
1:55 pm 13:55 Sunny 38 3.1 27 -2.6 67 67 S 5 7 30.18 1022 10 16 N/A
2:15 pm 14:15 Sunny 38 3.2 27 -2.7 66 66 SW 7 11 30.18 1022 10 16 N/A
2:35 pm 14:35 Sunny 38 3.5 28 -2.3 66 66 SSW 7 11 30.18 1022 10 16 N/A
2:55 pm 14:55 Sunny 39 3.8 28 -2.5 64 64 SSW 7 11 30.18 1022 10 16 N/A
3:15 pm 15:15 Sunny 40 4.2 28 -2.2 63 63 S 7 11 30.18 1022 10 16 N/A
3:35 pm 15:35 Sunny 40 4.3 28 -2.5 62 62 S 6 9 30.18 1022 10 16 N/A
3:55 pm 15:55 Sunny 40 4.3 28 -2.3 63 63 SSW 7 11 30.18 1022 10 16 N/A
4:15 pm 16:15 Sunny 40 4.5 28 -2.2 62 62 S 8 13 30.18 1022 10 16 N/A
4:35 pm 16:35 Sunny 39 4.1 28 -2 65 65 S 3 6 30.18 1022 10 16 N/A
4:55 pm 16:55 Sunny 39 4 29 -1.9 66 66 S 6 9 30.18 1022 10 16 N/A
5:15 pm 17:15 Sunny 39 3.7 28 -2.1 66 66 SSW 5 7 30.18 1022 10 16 N/A
5:35 pm 17:35 Clear 38 3.5 28 -2.2 67 67 S 3 6 30.18 1022 10 16 N/A
5:55 pm 17:55 Clear 39 3.7 28 -2.4 65 65 S 3 6 30.18 1022 10 16 N/A
6:15 pm 18:15 Clear 36 2.4 28 -2.5 70 70 N N/A 30.18 1022 10 16 N/A
6:35 pm 18:35 Clear 34 0.9 28 -2.2 80 80 N N/A 30.18 1022 10 16 N/A
6:55 pm 18:55 Clear 33 0.7 29 -1.5 85 85 N N/A 30.18 1022 10 16 N/A
7:15 pm 19:15 Clear 31 -0.6 28 -2.2 89 89 N N/A 30.18 1022 10 16 N/A
7:35 pm 19:35 Clear 31 -0.3 29 -1.7 90 90 N N/A 30.18 1022 10 16 N/A
7:55 pm 19:55 Clear 30 -1.2 28 -2.5 91 91 N N/A 30.18 1022 10 16 N/A
8:15 pm 20:15 Clear 31 -0.7 28 -2 91 91 N N/A 30.18 1022 10 16 N/A
8:35 pm 20:35 Clear 31 -0.7 28 -2 91 91 N N/A 30.18 1022 10 16 N/A
8:55 pm 20:55 Clear 30 -1 28 -2.1 92 92 N N/A 30.15 1021 10 16 N/A
9:15 pm 21:15 Clear 30 -1 28 -2.2 92 92 N N/A 30.15 1021 10 16 N/A
9:35 pm 21:35 Clear 30 -1 28 -2.2 92 92 N N/A 30.15 1021 10 16 N/A
9:55 pm 21:55 Clear 31 -0.8 28 -2.1 91 91 N N/A 30.15 1021 10 16 N/A
10:15 pm 22:15 Clear 30 -1.1 28 -2.3 92 92 N N/A 30.18 1022 10 16 N/A
10:35 pm 22:35 Clear 31 -0.7 29 -1.9 92 92 N N/A 30.15 1021 10 16 N/A
10:55 pm 22:55 Clear 31 -0.7 29 -1.9 92 92 N N/A 30.15 1021 10 16 N/A
11:15 pm 23:15 Clear 31 -0.7 29 -1.8 92 92 N N/A 30.15 1021 10 16 N/A
11:35 pm 23:35 Clear 31 -0.5 29 -1.6 92 92 N 3 6 30.15 1021 10 16 N/A
11:55 pm 23:55 Clear 31 -0.4 30 -1.3 94 94 N N/A 30.15 1021 10 16 N/A

Powered by AerisWeather